Weather History for Hurlburt Field, FL

Change the Weather History Date:

Thursday, November 22, 2012

  Actual Average Record
Temperature  
Mean Temperature 58 °F -  
Max Temperature 71 °F 67 °F 80 °F (1997)
Min Temperature 45 °F 48 °F 28 °F (2000)
Degree Days  
Heating Degree Days 7    
Growing Degree Days 8 (Base 50)    
Moisture  
Dew Point 53 °F    
Average Humidity 73    
Maximum Humidity 98    
Minimum Humidity 50    
Precipitation  
Precipitation 0.00 in - - ()
Sea Level Pressure  
Sea Level Pressure 30.20 in    
Wind  
Wind Speed 6 mph (SE)    
Max Wind Speed 12 mph    
Max Gust Speed -    
Visibility 10 miles    
Events Rain    
Averages and records for this station are not official NWS values.
T = Trace of Precipitation, MM = Missing Value Source: NWS Daily Summary

Daily Weather History Graph

Daily Weather History Graph

Search for Another Location

Airport:

Trip Planner

Search our weather history database for the weather conditions in past years. The results will help you decide how hot, cold, wet, or windy it might be!

Date:

Astronomy

Nov. 22, 2012 Rise Set
Actual Time 6:18 AM CST 4:46 PM CST
Civil Twilight 5:53 AM CST 5:12 PM CST
Nautical Twilight 5:23 AM CST 5:42 PM CST
Astronomical Twilight 4:54 AM CST 6:10 PM CST
Moon 1:13 PM CST (11/22) 12:59 AM CST (11/22)
Length of Visible Light 11h 19m
Length of Day
10h 28m
Waxing Gibbous, 71% of the Moon is Illuminated
Nov 22
Waxing Gibbous
Nov 28
Full
Dec 6
Last Quarter
Dec 13
New
Dec 19
First Quarter

Hourly Weather History & Observations

Time (CST) Temp. Windchill Dew Point Humidity Pressure Visibility Wind Dir Wind Speed Gust Speed Precip Events Conditions
12:55 AM 48.2 °F - 46.6 °F 94% 30.16 in 10.0 mi North 6.9 mph - N/A   Clear
1:55 AM 48.0 °F - 46.4 °F 94% 30.16 in 10.0 mi North 6.9 mph - N/A   Clear
2:55 AM 46.6 °F - 45.5 °F 96% 30.16 in 10.0 mi North 6.9 mph - N/A   Clear
3:55 AM 46.4 °F 42.9 °F 45.5 °F 97% 30.16 in 10.0 mi North 6.9 mph - N/A   Clear
4:55 AM 45.9 °F 42.9 °F 45.1 °F 97% 30.17 in 10.0 mi North 5.8 mph - N/A   Clear
5:55 AM 45.5 °F 42.5 °F 44.6 °F 97% 30.19 in 10.0 mi North 5.8 mph - N/A   Clear
6:55 AM 48.0 °F - 47.5 °F 98% 30.20 in 10.0 mi North 5.8 mph - N/A   Clear
7:55 AM 55.4 °F - 52.7 °F 91% 30.22 in 10.0 mi Calm Calm - N/A   Clear
8:55 AM 63.7 °F - 51.4 °F 64% 30.24 in 10.0 mi ENE 4.6 mph - N/A   Clear
9:00 AM 64.4 °F - 51.8 °F 64% 30.24 in 10.0 mi ENE 4.6 mph - N/A   Light Drizzle
9:20 AM 66.2 °F - 51.8 °F 60% 30.24 in 10.0 mi NE 4.6 mph - N/A   Clear
9:41 AM 68.0 °F - 51.8 °F 56% 30.25 in 10.0 mi ENE 3.5 mph - N/A   Light Drizzle
9:55 AM 68.4 °F - 51.8 °F 55% 30.24 in 10.0 mi Calm Calm - 0.00 in   Light Drizzle
10:11 AM 69.8 °F - 51.8 °F 53% 30.24 in 10.0 mi Calm Calm - N/A   Clear
10:24 AM 69.8 °F - 51.8 °F 53% 30.23 in 10.0 mi ESE 3.5 mph - N/A   Light Drizzle
10:55 AM 71.8 °F - 53.4 °F 52% 30.22 in 10.0 mi SSE 4.6 mph - 0.00 in   Light Drizzle
11:23 AM 71.6 °F - 51.8 °F 50% 30.22 in 10.0 mi SSE 8.1 mph - N/A   Clear
11:26 AM 71.6 °F - 51.8 °F 50% 30.22 in 10.0 mi SSE 9.2 mph - N/A Rain Light Rain
11:27 AM 71.6 °F - 51.8 °F 50% 30.22 in 10.0 mi SSE 9.2 mph - N/A   Clear
11:55 AM 70.2 °F - 53.4 °F 55% 30.21 in 10.0 mi SE 11.5 mph - 0.00 in   Clear
12:40 PM 69.8 °F - 55.4 °F 60% 30.19 in 10.0 mi SSE 10.4 mph - N/A   Light Drizzle
12:50 PM 69.8 °F - 55.4 °F 60% 30.19 in 10.0 mi SSE 10.4 mph - N/A   Clear
12:55 PM 70.0 °F - 55.8 °F 61% 30.19 in 10.0 mi SSE 8.1 mph - 0.00 in   Light Drizzle
1:05 PM 69.8 °F - 57.2 °F 64% 30.19 in 10.0 mi South 8.1 mph - N/A   Clear
1:49 PM 69.8 °F - 57.2 °F 64% 30.18 in 10.0 mi South 8.1 mph - N/A Rain Light Rain
1:51 PM 69.8 °F - 57.2 °F 64% 30.18 in 10.0 mi South 6.9 mph - N/A   Clear
1:55 PM 69.4 °F - 58.5 °F 68% 30.18 in 10.0 mi South 6.9 mph - 0.00 in   Clear
2:22 PM 69.8 °F - 59.0 °F 68% 30.18 in 10.0 mi South 8.1 mph - N/A Rain Light Rain
2:27 PM 69.8 °F - 59.0 °F 68% 30.18 in 10.0 mi South 8.1 mph - N/A   Clear
2:55 PM 69.4 °F - 58.1 °F 67% 30.18 in 10.0 mi South 8.1 mph - 0.00 in   Clear
3:06 PM 69.8 °F - 57.2 °F 64% 30.18 in 10.0 mi South 6.9 mph - N/A   Light Drizzle
3:15 PM 69.8 °F - 57.2 °F 64% 30.18 in 10.0 mi SSW 6.9 mph - N/A   Clear
3:22 PM 69.8 °F - 57.2 °F 64% 30.17 in 10.0 mi SSW 8.1 mph - N/A   Light Drizzle
3:32 PM 69.8 °F - 57.2 °F 64% 30.18 in 10.0 mi SSW 6.9 mph - N/A   Clear
3:55 PM 68.5 °F - 57.2 °F 67% 30.18 in 10.0 mi SSW 6.9 mph - 0.00 in   Clear
4:55 PM 65.3 °F - 57.4 °F 76% 30.18 in 10.0 mi SW 3.5 mph - N/A   Clear
5:55 PM 63.5 °F - 57.4 °F 80% 30.19 in 10.0 mi Calm Calm - N/A   Clear
6:55 PM 55.8 °F - 54.1 °F 94% 30.19 in 10.0 mi Calm Calm - N/A   Clear
7:55 PM 52.2 °F - 51.1 °F 96% 30.21 in 10.0 mi North 4.6 mph - N/A   Clear
8:55 PM 50.9 °F - 50.0 °F 97% 30.21 in 10.0 mi North 5.8 mph - N/A   Clear
9:55 PM 50.0 °F - 49.3 °F 97% 30.21 in 10.0 mi North 3.5 mph - N/A   Clear
10:55 PM 48.6 °F - 47.8 °F 97% 30.21 in 10.0 mi North 3.5 mph - N/A   Clear
11:55 PM 47.5 °F - 46.6 °F 97% 30.21 in 10.0 mi North 4.6 mph - N/A   Clear